datetime,flow
1938-10-01,328.0
1938-10-02,316.0
1938-10-03,328.0
1938-10-04,312.0
1938-10-05,216.0
1938-10-06,300.0
1938-10-07,388.0
1938-10-08,842.0
1938-10-09,729.0
1938-10-10,609.0
1938-10-11,539.0
1938-10-12,509.0
1938-10-13,494.0
1938-10-14,475.0
1938-10-15,461.0
1938-10-16,433.0
1938-10-17,410.0
1938-10-18,442.0
1938-10-19,375.0
1938-10-20,424.0
1938-10-21,419.0
1938-10-22,379.0
1938-10-23,345.0
1938-10-24,316.0
1938-10-25,304.0
1938-10-26,312.0
1938-10-27,296.0
1938-10-28,227.0
1938-10-29,219.0
1938-10-30,223.0
1938-10-31,212.0
1938-11-01,238.0
1938-11-02,308.0
1938-11-03,375.0
1938-11-04,366.0
1938-11-05,384.0
1938-11-06,397.0
1938-11-07,362.0
1938-11-08,345.0
1938-11-09,296.0
1938-11-10,257.0
1938-11-11,223.0
1938-11-12,198.0
1938-11-13,182.0
1938-11-14,166.0
1938-11-15,147.0
1938-11-16,208.0
1938-11-17,192.0
1938-11-18,169.0
1938-11-19,150.0
1938-11-20,153.0
1938-11-21,160.0
1938-11-22,160.0
1938-11-23,130.0
1938-11-24,113.0
1938-11-25,128.0
1938-11-26,128.0
1938-11-27,141.0
1938-11-28,160.0
1938-11-29,169.0
1938-11-30,178.0
1938-12-01,182.0
1938-12-02,156.0
1938-12-03,147.0
1938-12-04,153.0
1938-12-05,153.0
1938-12-06,153.0
1938-12-07,150.0
1938-12-08,147.0
1938-12-09,150.0
1938-12-10,153.0
1938-12-11,153.0
1938-12-12,156.0
1938-12-13,150.0
1938-12-14,128.0
1938-12-15,150.0
1938-12-16,156.0
1938-12-17,150.0
1938-12-18,139.0
1938-12-19,150.0
1938-12-20,153.0
1938-12-21,156.0
1938-12-22,160.0
1938-12-23,178.0
1938-12-24,128.0
1938-12-25,113.0
1938-12-26,122.0
1938-12-27,122.0
1938-12-28,136.0
1938-12-29,128.0
1938-12-30,130.0
1938-12-31,130.0
1939-01-01,130.0
1939-01-02,133.0
1939-01-03,141.0
1939-01-04,133.0
1939-01-05,122.0
1939-01-06,144.0
1939-01-07,136.0
1939-01-08,139.0
1939-01-09,133.0
1939-01-10,133.0
1939-01-11,120.0
1939-01-12,120.0
1939-01-13,122.0
1939-01-14,117.0
1939-01-15,113.0
1939-01-16,113.0
1939-01-17,110.0
1939-01-18,117.0
1939-01-19,115.0
1939-01-20,115.0
1939-01-21,108.0
1939-01-22,110.0
1939-01-23,108.0
1939-01-24,106.0
1939-01-25,104.0
1939-01-26,106.0
1939-01-27,125.0
1939-01-28,128.0
1939-01-29,120.0
1939-01-30,120.0
1939-01-31,113.0
1939-02-01,106.0
1939-02-02,99.0
1939-02-03,108.0
1939-02-04,117.0
1939-02-05,110.0
1939-02-06,108.0
1939-02-07,102.0
1939-02-08,104.0
1939-02-09,117.0
1939-02-10,110.0
1939-02-11,125.0
1939-02-12,120.0
1939-02-13,125.0
1939-02-14,136.0
1939-02-15,120.0
1939-02-16,110.0
1939-02-17,92.0
1939-02-18,108.0
1939-02-19,136.0
1939-02-20,133.0
1939-02-21,108.0
1939-02-22,117.0
1939-02-23,113.0
1939-02-24,108.0
1939-02-25,113.0
1939-02-26,110.0
1939-02-27,108.0
1939-02-28,95.0
1939-03-01,97.0
1939-03-02,95.0
1939-03-03,99.0
1939-03-04,104.0
1939-03-05,90.0
1939-03-06,87.0
1939-03-07,90.0
1939-03-08,108.0
1939-03-09,125.0
1939-03-10,153.0
1939-03-11,246.0
1939-03-12,219.0
1939-03-13,227.0
1939-03-14,358.0
1939-03-15,235.0
1939-03-16,261.0
1939-03-17,358.0
1939-03-18,392.0
1939-03-19,406.0
1939-03-20,475.0
1939-03-21,480.0
1939-03-22,456.0
1939-03-23,451.0
1939-03-24,466.0
1939-03-25,406.0
1939-03-26,442.0
1939-03-27,419.0
1939-03-28,308.0
1939-03-29,276.0
1939-03-30,227.0
1939-03-31,205.0
1939-04-01,208.0
1939-04-02,257.0
1939-04-03,312.0
1939-04-04,451.0
1939-04-05,456.0
1939-04-06,466.0
1939-04-07,366.0
1939-04-08,276.0
1939-04-09,345.0
1939-04-10,384.0
1939-04-11,254.0
1939-04-12,172.0
1939-04-13,128.0
1939-04-14,141.0
1939-04-15,163.0
1939-04-16,104.0
1939-04-17,87.0
1939-04-18,92.0
1939-04-19,125.0
1939-04-20,166.0
1939-04-21,185.0
1939-04-22,223.0
1939-04-23,300.0
1939-04-24,388.0
1939-04-25,261.0
1939-04-26,133.0
1939-04-27,97.0
1939-04-28,120.0
1939-04-29,216.0
1939-04-30,250.0
1939-05-01,238.0
1939-05-02,265.0
1939-05-03,312.0
1939-05-04,227.0
1939-05-05,182.0
1939-05-06,257.0
1939-05-07,216.0
1939-05-08,122.0
1939-05-09,128.0
1939-05-10,205.0
1939-05-11,257.0
1939-05-12,238.0
1939-05-13,178.0
1939-05-14,166.0
1939-05-15,150.0
1939-05-16,175.0
1939-05-17,175.0
1939-05-18,160.0
1939-05-19,201.0
1939-05-20,384.0
1939-05-21,447.0
1939-05-22,461.0
1939-05-23,401.0
1939-05-24,288.0
1939-05-25,212.0
1939-05-26,156.0
1939-05-27,166.0
1939-05-28,231.0
1939-05-29,328.0
1939-05-30,375.0
1939-05-31,461.0
1939-06-01,494.0
1939-06-02,397.0
1939-06-03,358.0
1939-06-04,490.0
1939-06-05,614.0
1939-06-06,447.0
1939-06-07,349.0
1939-06-08,345.0
1939-06-09,341.0
1939-06-10,358.0
1939-06-11,366.0
1939-06-12,284.0
1939-06-13,254.0
1939-06-14,284.0
1939-06-15,178.0
1939-06-16,160.0
1939-06-17,296.0
1939-06-18,257.0
1939-06-19,254.0
1939-06-20,242.0
1939-06-21,182.0
1939-06-22,166.0
1939-06-23,166.0
1939-06-24,169.0
1939-06-25,169.0
1939-06-26,172.0
1939-06-27,156.0
1939-06-28,136.0
1939-06-29,141.0
1939-06-30,136.0
1939-07-01,136.0
1939-07-02,156.0
1939-07-03,160.0
1939-07-04,156.0
1939-07-05,153.0
1939-07-06,144.0
1939-07-07,133.0
1939-07-08,125.0
1939-07-09,122.0
1939-07-10,122.0
1939-07-11,113.0
1939-07-12,102.0
1939-07-13,102.0
1939-07-14,104.0
1939-07-15,106.0
1939-07-16,120.0
1939-07-17,110.0
1939-07-18,104.0
1939-07-19,102.0
1939-07-20,99.0
1939-07-21,102.0
1939-07-22,106.0
1939-07-23,104.0
1939-07-24,104.0
1939-07-25,102.0
1939-07-26,104.0
1939-07-27,106.0
1939-07-28,110.0
1939-07-29,153.0
1939-07-30,153.0
1939-07-31,208.0
1939-08-01,175.0
1939-08-02,147.0
1939-08-03,139.0
1939-08-04,139.0
1939-08-05,133.0
1939-08-06,125.0
1939-08-07,388.0
1939-08-08,358.0
1939-08-09,269.0
1939-08-10,235.0
1939-08-11,205.0
1939-08-12,160.0
1939-08-13,144.0
1939-08-14,139.0
1939-08-15,122.0
1939-08-16,113.0
1939-08-17,108.0
1939-08-18,104.0
1939-08-19,102.0
1939-08-20,104.0
1939-08-21,108.0
1939-08-22,108.0
1939-08-23,113.0
1939-08-24,110.0
1939-08-25,108.0
1939-08-26,104.0
1939-08-27,106.0
1939-08-28,115.0
1939-08-29,122.0
1939-08-30,120.0
1939-08-31,128.0
1939-09-01,136.0
1939-09-02,139.0
1939-09-03,141.0
1939-09-04,141.0
1939-09-05,156.0
1939-09-06,205.0
1939-09-07,300.0
1939-09-08,300.0
1939-09-09,461.0
1939-09-10,456.0
1939-09-11,656.0
1939-09-12,392.0
1939-09-13,509.0
1939-09-14,392.0
1939-09-15,466.0
1939-09-16,456.0
1939-09-17,401.0
1939-09-18,379.0
1939-09-19,349.0
1939-09-20,337.0
1939-09-21,320.0
1939-09-22,273.0
1939-09-23,261.0
1939-09-24,216.0
1939-09-25,201.0
1939-09-26,227.0
1939-09-27,250.0
1939-09-28,269.0
1939-09-29,300.0
1939-09-30,312.0
1939-10-01,326.0
1939-10-02,322.0
1939-10-03,310.0
1939-10-04,240.0
1939-10-05,453.0
1939-10-06,190.0
1939-10-07,268.0
1939-10-08,264.0
1939-10-09,297.0
1939-10-10,314.0
1939-10-11,318.0
1939-10-12,310.0
1939-10-13,301.0
1939-10-14,305.0
1939-10-15,301.0
1939-10-16,305.0
1939-10-17,301.0
1939-10-18,268.0
1939-10-19,248.0
1939-10-20,222.0
1939-10-21,244.0
1939-10-22,229.0
1939-10-23,229.0
1939-10-24,218.0
1939-10-25,214.0
1939-10-26,225.0
1939-10-27,248.0
1939-10-28,244.0
1939-10-29,268.0
1939-10-30,284.0
1939-10-31,289.0
1939-11-01,244.0
1939-11-02,190.0
1939-11-03,173.0
1939-11-04,160.0
1939-11-05,140.0
1939-11-06,153.0
1939-11-07,156.0
1939-11-08,112.0
1939-11-09,120.0
1939-11-10,140.0
1939-11-11,134.0
1939-11-12,137.0
1939-11-13,140.0
1939-11-14,144.0
1939-11-15,144.0
1939-11-16,144.0
1939-11-17,150.0
1939-11-18,156.0
1939-11-19,153.0
1939-11-20,144.0
1939-11-21,160.0
1939-11-22,173.0
1939-11-23,169.0
1939-11-24,173.0
1939-11-25,166.0
1939-11-26,160.0
1939-11-27,160.0
1939-11-28,169.0
1939-11-29,190.0
1939-11-30,153.0
1939-12-01,144.0
1939-12-02,134.0
1939-12-03,134.0
1939-12-04,134.0
1939-12-05,150.0
1939-12-06,150.0
1939-12-07,147.0
1939-12-08,144.0
1939-12-09,147.0
1939-12-10,160.0
1939-12-11,150.0
1939-12-12,153.0
1939-12-13,150.0
1939-12-14,140.0
1939-12-15,140.0
1939-12-16,144.0
1939-12-17,153.0
1939-12-18,156.0
1939-12-19,129.0
1939-12-20,122.0
1939-12-21,140.0
1939-12-22,129.0
1939-12-23,129.0
1939-12-24,137.0
1939-12-25,156.0
1939-12-26,140.0
1939-12-27,124.0
1939-12-28,120.0
1939-12-29,117.0
1939-12-30,115.0
1939-12-31,137.0
1940-01-01,132.0
1940-01-02,132.0
1940-01-03,150.0
1940-01-04,160.0
1940-01-05,173.0
1940-01-06,166.0
1940-01-07,156.0
1940-01-08,144.0
1940-01-09,147.0
1940-01-10,144.0
1940-01-11,137.0
1940-01-12,140.0
1940-01-13,132.0
1940-01-14,98.0
1940-01-15,94.0
1940-01-16,98.0
1940-01-17,104.0
1940-01-18,108.0
1940-01-19,102.0
1940-01-20,115.0
1940-01-21,132.0
1940-01-22,129.0
1940-01-23,120.0
1940-01-24,132.0
1940-01-25,153.0
1940-01-26,153.0
1940-01-27,147.0
1940-01-28,134.0
1940-01-29,127.0
1940-01-30,129.0
1940-01-31,132.0
1940-02-01,129.0
1940-02-02,137.0
1940-02-03,137.0
1940-02-04,129.0
1940-02-05,127.0
1940-02-06,120.0
1940-02-07,124.0
1940-02-08,122.0
1940-02-09,115.0
1940-02-10,115.0
1940-02-11,112.0
1940-02-12,115.0
1940-02-13,96.0
1940-02-14,92.0
1940-02-15,102.0
1940-02-16,100.0
1940-02-17,96.0
1940-02-18,90.0
1940-02-19,96.0
1940-02-20,88.0
1940-02-21,94.0
1940-02-22,104.0
1940-02-23,104.0
1940-02-24,104.0
1940-02-25,108.0
1940-02-26,124.0
1940-02-27,137.0
1940-02-28,129.0
1940-02-29,134.0
1940-03-01,129.0
1940-03-02,102.0
1940-03-03,96.0
1940-03-04,94.0
1940-03-05,94.0
1940-03-06,96.0
1940-03-07,96.0
1940-03-08,90.0
1940-03-09,90.0
1940-03-10,90.0
1940-03-11,94.0
1940-03-12,87.0
1940-03-13,76.0
1940-03-14,85.0
1940-03-15,85.0
1940-03-16,82.0
1940-03-17,88.0
1940-03-18,92.0
1940-03-19,104.0
1940-03-20,122.0
1940-03-21,94.0
1940-03-22,92.0
1940-03-23,94.0
1940-03-24,94.0
1940-03-25,100.0
1940-03-26,110.0
1940-03-27,79.0
1940-03-28,96.0
1940-03-29,77.0
1940-03-30,80.0
1940-03-31,80.0
1940-04-01,106.0
1940-04-02,129.0
1940-04-03,163.0
1940-04-04,129.0
1940-04-05,115.0
1940-04-06,169.0
1940-04-07,200.0
1940-04-08,183.0
1940-04-09,147.0
1940-04-10,104.0
1940-04-11,84.0
1940-04-12,73.0
1940-04-13,65.0
1940-04-14,85.0
1940-04-15,183.0
1940-04-16,207.0
1940-04-17,144.0
1940-04-18,102.0
1940-04-19,115.0
1940-04-20,218.0
1940-04-21,448.0
1940-04-22,462.0
1940-04-23,347.0
1940-04-24,322.0
1940-04-25,272.0
1940-04-26,264.0
1940-04-27,301.0
1940-04-28,236.0
1940-04-29,180.0
1940-04-30,232.0
1940-05-01,193.0
1940-05-02,193.0
1940-05-03,240.0
1940-05-04,339.0
1940-05-05,443.0
1940-05-06,394.0
1940-05-07,385.0
1940-05-08,377.0
1940-05-09,356.0
1940-05-10,503.0
1940-05-11,494.0
1940-05-12,555.0
1940-05-13,585.0
1940-05-14,555.0
1940-05-15,555.0
1940-05-16,476.0
1940-05-17,615.0
1940-05-18,650.0
1940-05-19,411.0
1940-05-20,310.0
1940-05-21,430.0
1940-05-22,503.0
1940-05-23,476.0
1940-05-24,540.0
1940-05-25,600.0
1940-05-26,635.0
1940-05-27,580.0
1940-05-28,575.0
1940-05-29,522.0
1940-05-30,540.0
1940-05-31,665.0
1940-06-01,750.0
1940-06-02,675.0
1940-06-03,595.0
1940-06-04,411.0
1940-06-05,322.0
1940-06-06,314.0
1940-06-07,268.0
1940-06-08,385.0
1940-06-09,416.0
1940-06-10,368.0
1940-06-11,347.0
1940-06-12,425.0
1940-06-13,347.0
1940-06-14,289.0
1940-06-15,650.0
1940-06-16,434.0
1940-06-17,335.0
1940-06-18,360.0
1940-06-19,318.0
1940-06-20,310.0
1940-06-21,310.0
1940-06-22,293.0
1940-06-23,260.0
1940-06-24,225.0
1940-06-25,211.0
1940-06-26,186.0
1940-06-27,180.0
1940-06-28,156.0
1940-06-29,144.0
1940-06-30,207.0
1940-07-01,240.0
1940-07-02,193.0
1940-07-03,153.0
1940-07-04,144.0
1940-07-05,132.0
1940-07-06,117.0
1940-07-07,132.0
1940-07-08,134.0
1940-07-09,127.0
1940-07-10,122.0
1940-07-11,117.0
1940-07-12,117.0
1940-07-13,120.0
1940-07-14,122.0
1940-07-15,124.0
1940-07-16,129.0
1940-07-17,153.0
1940-07-18,153.0
1940-07-19,150.0
1940-07-20,147.0
1940-07-21,153.0
1940-07-22,137.0
1940-07-23,150.0
1940-07-24,150.0
1940-07-25,150.0
1940-07-26,137.0
1940-07-27,127.0
1940-07-28,144.0
1940-07-29,180.0
1940-07-30,163.0
1940-07-31,160.0
1940-08-01,150.0
1940-08-02,132.0
1940-08-03,120.0
1940-08-04,124.0
1940-08-05,127.0
1940-08-06,132.0
1940-08-07,137.0
1940-08-08,140.0
1940-08-09,127.0
1940-08-10,122.0
1940-08-11,122.0
1940-08-12,115.0
1940-08-13,110.0
1940-08-14,115.0
1940-08-15,110.0
1940-08-16,112.0
1940-08-17,108.0
1940-08-18,108.0
1940-08-19,127.0
1940-08-20,137.0
1940-08-21,115.0
1940-08-22,127.0
1940-08-23,204.0
1940-08-24,466.0
1940-08-25,476.0
1940-08-26,499.0
1940-08-27,535.0
1940-08-28,480.0
1940-08-29,343.0
1940-08-30,268.0
1940-08-31,204.0
1940-09-01,218.0
1940-09-02,236.0
1940-09-03,229.0
1940-09-04,186.0
1940-09-05,160.0
1940-09-06,150.0
1940-09-07,160.0
1940-09-08,160.0
1940-09-09,160.0
1940-09-10,160.0
1940-09-11,156.0
1940-09-12,153.0
1940-09-13,173.0
1940-09-14,222.0
1940-09-15,297.0
1940-09-16,276.0
1940-09-17,256.0
1940-09-18,389.0
1940-09-19,512.0
1940-09-20,531.0
1940-09-21,535.0
1940-09-22,550.0
1940-09-23,560.0
1940-09-24,620.0
1940-09-25,580.0
1940-09-26,595.0
1940-09-27,555.0
1940-09-28,535.0
1940-09-29,570.0
1940-09-30,996.0
1940-10-01,1160.0
1940-10-02,595.0
1940-10-03,530.0
1940-10-04,512.0
1940-10-05,698.0
1940-10-06,780.0
1940-10-07,605.0
1940-10-08,556.0
1940-10-09,538.0
1940-10-10,552.0
1940-10-11,512.0
1940-10-12,498.0
1940-10-13,480.0
1940-10-14,448.0
1940-10-15,430.0
1940-10-16,426.0
1940-10-17,408.0
1940-10-18,394.0
1940-10-19,394.0
1940-10-20,382.0
1940-10-21,358.0
1940-10-22,342.0
1940-10-23,334.0
1940-10-24,246.0
1940-10-25,178.0
1940-10-26,163.0
1940-10-27,196.0
1940-10-28,184.0
1940-10-29,181.0
1940-10-30,181.0
1940-10-31,175.0
1940-11-01,175.0
1940-11-02,181.0
1940-11-03,178.0
1940-11-04,181.0
1940-11-05,178.0
1940-11-06,172.0
1940-11-07,160.0
1940-11-08,166.0
1940-11-09,140.0
1940-11-10,140.0
1940-11-11,151.0
1940-11-12,140.0
1940-11-13,145.0
1940-11-14,135.0
1940-11-15,154.0
1940-11-16,163.0
1940-11-17,172.0
1940-11-18,175.0
1940-11-19,190.0
1940-11-20,169.0
1940-11-21,151.0
1940-11-22,157.0
1940-11-23,157.0
1940-11-24,154.0
1940-11-25,151.0
1940-11-26,142.0
1940-11-27,140.0
1940-11-28,145.0
1940-11-29,154.0
1940-11-30,157.0
1940-12-01,138.0
1940-12-02,142.0
1940-12-03,140.0
1940-12-04,145.0
1940-12-05,138.0
1940-12-06,151.0
1940-12-07,157.0
1940-12-08,135.0
1940-12-09,122.0
1940-12-10,125.0
1940-12-11,135.0
1940-12-12,130.0
1940-12-13,120.0
1940-12-14,98.0
1940-12-15,98.0
1940-12-16,95.0
1940-12-17,120.0
1940-12-18,110.0
1940-12-19,100.0
1940-12-20,100.0
1940-12-21,93.0
1940-12-22,110.0
1940-12-23,110.0
1940-12-24,115.0
1940-12-25,112.0
1940-12-26,102.0
1940-12-27,95.0
1940-12-28,105.0
1940-12-29,102.0
1940-12-30,108.0
1940-12-31,115.0
1941-01-01,115.0
1941-01-02,102.0
1941-01-03,95.0
1941-01-04,83.0
1941-01-05,100.0
1941-01-06,115.0
1941-01-07,102.0
1941-01-08,93.0
1941-01-09,89.0
1941-01-10,83.0
1941-01-11,85.0
1941-01-12,83.0
1941-01-13,91.0
1941-01-14,85.0
1941-01-15,81.0
1941-01-16,79.0
1941-01-17,79.0
1941-01-18,66.0
1941-01-19,63.0
1941-01-20,70.0
1941-01-21,72.0
1941-01-22,75.0
1941-01-23,70.0
1941-01-24,68.0
1941-01-25,70.0
1941-01-26,64.0
1941-01-27,62.0
1941-01-28,62.0
1941-01-29,68.0
1941-01-30,74.0
1941-01-31,87.0
1941-02-01,89.0
1941-02-02,85.0
1941-02-03,74.0
1941-02-04,59.0
1941-02-05,56.0
1941-02-06,58.0
1941-02-07,66.0
1941-02-08,72.0
1941-02-09,72.0
1941-02-10,74.0
1941-02-11,75.0
1941-02-12,93.0
1941-02-13,95.0
1941-02-14,87.0
1941-02-15,85.0
1941-02-16,79.0
1941-02-17,83.0
1941-02-18,102.0
1941-02-19,108.0
1941-02-20,108.0
1941-02-21,93.0
1941-02-22,100.0
1941-02-23,105.0
1941-02-24,102.0
1941-02-25,110.0
1941-02-26,102.0
1941-02-27,85.0
1941-02-28,72.0
1941-03-01,72.0
1941-03-02,77.0
1941-03-03,81.0
1941-03-04,75.0
1941-03-05,70.0
1941-03-06,75.0
1941-03-07,70.0
1941-03-08,66.0
1941-03-09,63.0
1941-03-10,64.0
1941-03-11,74.0
1941-03-12,68.0
1941-03-13,70.0
1941-03-14,81.0
1941-03-15,93.0
1941-03-16,95.0
1941-03-17,93.0
1941-03-18,87.0
1941-03-19,102.0
1941-03-20,118.0
1941-03-21,118.0
1941-03-22,130.0
1941-03-23,151.0
1941-03-24,190.0
1941-03-25,178.0
1941-03-26,130.0
1941-03-27,125.0
1941-03-28,128.0
1941-03-29,138.0
1941-03-30,128.0
1941-03-31,132.0
1941-04-01,184.0
1941-04-02,229.0
1941-04-03,214.0
1941-04-04,172.0
1941-04-05,166.0
1941-04-06,163.0
1941-04-07,142.0
1941-04-08,89.0
1941-04-09,175.0
1941-04-10,350.0
1941-04-11,394.0
1941-04-12,350.0
1941-04-13,370.0
1941-04-14,302.0
1941-04-15,232.0
1941-04-16,190.0
1941-04-17,217.0
1941-04-18,229.0
1941-04-19,232.0
1941-04-20,266.0
1941-04-21,229.0
1941-04-22,163.0
1941-04-23,172.0
1941-04-24,175.0
1941-04-25,187.0
1941-04-26,238.0
1941-04-27,394.0
1941-04-28,802.0
1941-04-29,791.0
1941-04-30,840.0
1941-05-01,796.0
1941-05-02,650.0
1941-05-03,957.0
1941-05-04,1830.0
1941-05-05,2810.0
1941-05-06,2300.0
1941-05-07,2050.0
1941-05-08,2150.0
1941-05-09,2310.0
1941-05-10,1920.0
1941-05-11,1890.0
1941-05-12,2160.0
1941-05-13,2440.0
1941-05-14,2110.0
1941-05-15,1450.0
1941-05-16,783.0
1941-05-17,604.0
1941-05-18,769.0
1941-05-19,713.0
1941-05-20,543.0
1941-05-21,501.0
1941-05-22,477.0
1941-05-23,388.0
1941-05-24,382.0
1941-05-25,644.0
1941-05-26,832.0
1941-05-27,846.0
1941-05-28,762.0
1941-05-29,543.0
1941-05-30,618.0
1941-05-31,624.0
1941-06-01,637.0
1941-06-02,818.0
1941-06-03,797.0
1941-06-04,884.0
1941-06-05,720.0
1941-06-06,1090.0
1941-06-07,949.0
1941-06-08,1160.0
1941-06-09,1090.0
1941-06-10,1160.0
1941-06-11,1130.0
1941-06-12,839.0
1941-06-13,713.0
1941-06-14,650.0
1941-06-15,618.0
1941-06-16,699.0
1941-06-17,692.0
1941-06-18,762.0
1941-06-19,994.0
1941-06-20,734.0
1941-06-21,1240.0
1941-06-22,1190.0
1941-06-23,1220.0
1941-06-24,1330.0
1941-06-25,1260.0
1941-06-26,1080.0
1941-06-27,1040.0
1941-06-28,762.0
1941-06-29,598.0
1941-06-30,460.0
1941-07-01,330.0
1941-07-02,372.0
1941-07-03,585.0
1941-07-04,561.0
1941-07-05,604.0
1941-07-06,513.0
1941-07-07,525.0
1941-07-08,637.0
1941-07-09,720.0
1941-07-10,657.0
1941-07-11,924.0
1941-07-12,797.0
1941-07-13,825.0
1941-07-14,692.0
1941-07-15,567.0
1941-07-16,727.0
1941-07-17,644.0
1941-07-18,664.0
1941-07-19,755.0
1941-07-20,916.0
1941-07-21,916.0
1941-07-22,573.0
1941-07-23,604.0
1941-07-24,598.0
1941-07-25,501.0
1941-07-26,513.0
1941-07-27,519.0
1941-07-28,507.0
1941-07-29,483.0
1941-07-30,305.0
1941-07-31,355.0
1941-08-01,366.0
1941-08-02,265.0
1941-08-03,345.0
1941-08-04,315.0
1941-08-05,305.0
1941-08-06,366.0
1941-08-07,598.0
1941-08-08,1280.0
1941-08-09,1180.0
1941-08-10,1410.0
1941-08-11,1080.0
1941-08-12,976.0
1941-08-13,790.0
1941-08-14,678.0
1941-08-15,618.0
1941-08-16,1120.0
1941-08-17,1260.0
1941-08-18,1160.0
1941-08-19,967.0
1941-08-20,734.0
1941-08-21,637.0
1941-08-22,465.0
1941-08-23,477.0
1941-08-24,305.0
1941-08-25,285.0
1941-08-26,224.0
1941-08-27,166.0
1941-08-28,118.0
1941-08-29,110.0
1941-08-30,150.0
1941-08-31,170.0
1941-09-01,170.0
1941-09-02,126.0
1941-09-03,134.0
1941-09-04,90.0
1941-09-05,138.0
1941-09-06,90.0
1941-09-07,122.0
1941-09-08,224.0
1941-09-09,320.0
1941-09-10,232.0
1941-09-11,355.0
1941-09-12,345.0
1941-09-13,477.0
1941-09-14,579.0
1941-09-15,531.0
1941-09-16,531.0
1941-09-17,592.0
1941-09-18,811.0
1941-09-19,797.0
1941-09-20,860.0
1941-09-21,734.0
1941-09-22,908.0
1941-09-23,2100.0
1941-09-24,1320.0
1941-09-25,1100.0
1941-09-26,1100.0
1941-09-27,804.0
1941-09-28,783.0
1941-09-29,876.0
1941-09-30,976.0
1941-10-01,748.0
1941-10-02,790.0
1941-10-03,1410.0
1941-10-04,1740.0
1941-10-05,1130.0
1941-10-06,832.0
1941-10-07,1120.0
1941-10-08,630.0
1941-10-09,650.0
1941-10-10,755.0
1941-10-11,706.0
1941-10-12,525.0
1941-10-13,949.0
1941-10-14,1240.0
1941-10-15,818.0
1941-10-16,790.0
1941-10-17,741.0
1941-10-18,769.0
1941-10-19,664.0
1941-10-20,513.0
1941-10-21,644.0
1941-10-22,839.0
1941-10-23,644.0
1941-10-24,567.0
1941-10-25,664.0
1941-10-26,1060.0
1941-10-27,720.0
1941-10-28,727.0
1941-10-29,734.0
1941-10-30,790.0
1941-10-31,860.0
1941-11-01,839.0
1941-11-02,727.0
1941-11-03,637.0
1941-11-04,531.0
1941-11-05,445.0
1941-11-06,397.0
1941-11-07,352.0
1941-11-08,352.0
1941-11-09,343.0
1941-11-10,334.0
1941-11-11,343.0
1941-11-12,312.0
1941-11-13,272.0
1941-11-14,268.0
1941-11-15,260.0
1941-11-16,248.0
1941-11-17,264.0
1941-11-18,256.0
1941-11-19,248.0
1941-11-20,244.0
1941-11-21,212.0
1941-11-22,212.0
1941-11-23,197.0
1941-11-24,197.0
1941-11-25,191.0
1941-11-26,182.0
1941-11-27,197.0
1941-11-28,204.0
1941-11-29,194.0
1941-11-30,194.0
1941-12-01,179.0
1941-12-02,173.0
1941-12-03,185.0
1941-12-04,179.0
1941-12-05,176.0
1941-12-06,179.0
1941-12-07,176.0
1941-12-08,173.0
1941-12-09,167.0
1941-12-10,170.0
1941-12-11,170.0
1941-12-12,173.0
1941-12-13,167.0
1941-12-14,173.0
1941-12-15,155.0
1941-12-16,140.0
1941-12-17,149.0
1941-12-18,155.0
1941-12-19,146.0
1941-12-20,149.0
1941-12-21,161.0
1941-12-22,155.0
1941-12-23,158.0
1941-12-24,152.0
1941-12-25,143.0
1941-12-26,155.0
1941-12-27,149.0
1941-12-28,149.0
1941-12-29,149.0
1941-12-30,149.0
1941-12-31,146.0
1942-01-01,146.0
1942-01-02,130.0
1942-01-03,120.0
1942-01-04,130.0
1942-01-05,110.0
1942-01-06,100.0
1942-01-07,120.0
1942-01-08,130.0
1942-01-09,130.0
1942-01-10,131.0
1942-01-11,131.0
1942-01-12,131.0
1942-01-13,125.0
1942-01-14,134.0
1942-01-15,137.0
1942-01-16,152.0
1942-01-17,140.0
1942-01-18,149.0
1942-01-19,155.0
1942-01-20,137.0
1942-01-21,164.0
1942-01-22,155.0
1942-01-23,170.0
1942-01-24,167.0
1942-01-25,164.0
1942-01-26,158.0
1942-01-27,179.0
1942-01-28,170.0
1942-01-29,185.0
1942-01-30,164.0
1942-01-31,152.0
1942-02-01,158.0
1942-02-02,152.0
1942-02-03,143.0
1942-02-04,158.0
1942-02-05,158.0
1942-02-06,149.0
1942-02-07,152.0
1942-02-08,152.0
1942-02-09,140.0
1942-02-10,140.0
1942-02-11,119.0
1942-02-12,122.0
1942-02-13,134.0
1942-02-14,134.0
1942-02-15,119.0
1942-02-16,122.0
1942-02-17,119.0
1942-02-18,102.0
1942-02-19,92.0
1942-02-20,85.0
1942-02-21,102.0
1942-02-22,134.0
1942-02-23,146.0
1942-02-24,116.0
1942-02-25,122.0
1942-02-26,113.0
1942-02-27,125.0
1942-02-28,128.0
1942-03-01,113.0
1942-03-02,102.0
1942-03-03,128.0
1942-03-04,128.0
1942-03-05,131.0
1942-03-06,149.0
1942-03-07,105.0
1942-03-08,95.0
1942-03-09,105.0
1942-03-10,152.0
1942-03-11,155.0
1942-03-12,152.0
1942-03-13,185.0
1942-03-14,188.0
1942-03-15,155.0
1942-03-16,119.0
1942-03-17,102.0
1942-03-18,119.0
1942-03-19,146.0
1942-03-20,143.0
1942-03-21,131.0
1942-03-22,116.0
1942-03-23,137.0
1942-03-24,240.0
1942-03-25,185.0
1942-03-26,155.0
1942-03-27,155.0
1942-03-28,161.0
1942-03-29,137.0
1942-03-30,125.0
1942-03-31,140.0
1942-04-01,161.0
1942-04-02,220.0
1942-04-03,370.0
1942-04-04,579.0
1942-04-05,884.0
1942-04-06,1090.0
1942-04-07,685.0
1942-04-08,644.0
1942-04-09,678.0
1942-04-10,776.0
1942-04-11,967.0
1942-04-12,1290.0
1942-04-13,1750.0
1942-04-14,1900.0
1942-04-15,2140.0
1942-04-16,1560.0
1942-04-17,1420.0
1942-04-18,1260.0
1942-04-19,741.0
1942-04-20,940.0
1942-04-21,832.0
1942-04-22,1080.0
1942-04-23,2320.0
1942-04-24,1570.0
1942-04-25,1390.0
1942-04-26,1040.0
1942-04-27,940.0
1942-04-28,624.0
1942-04-29,477.0
1942-04-30,579.0
1942-05-01,450.0
1942-05-02,1030.0
1942-05-03,776.0
1942-05-04,994.0
1942-05-05,1110.0
1942-05-06,846.0
1942-05-07,949.0
1942-05-08,1200.0
1942-05-09,1400.0
1942-05-10,1880.0
1942-05-11,1870.0
1942-05-12,1970.0
1942-05-13,1060.0
1942-05-14,539.0
1942-05-15,321.0
1942-05-16,482.0
1942-05-17,470.0
1942-05-18,380.0
1942-05-19,602.0
1942-05-20,610.0
1942-05-21,943.0
1942-05-22,1180.0
1942-05-23,1320.0
1942-05-24,1570.0
1942-05-25,1270.0
1942-05-26,1350.0
1942-05-27,1570.0
1942-05-28,1130.0
1942-05-29,792.0
1942-05-30,696.0
1942-05-31,664.0
1942-06-01,784.0
1942-06-02,916.0
1942-06-03,864.0
1942-06-04,872.0
1942-06-05,907.0
1942-06-06,952.0
1942-06-07,1100.0
1942-06-08,1410.0
1942-06-09,1060.0
1942-06-10,889.0
1942-06-11,925.0
1942-06-12,1140.0
1942-06-13,1100.0
1942-06-14,1080.0
1942-06-15,526.0
1942-06-16,526.0
1942-06-17,1020.0
1942-06-18,1360.0
1942-06-19,1520.0
1942-06-20,1500.0
1942-06-21,1160.0
1942-06-22,1100.0
1942-06-23,1010.0
1942-06-24,752.0
1942-06-25,632.0
1942-06-26,532.0
1942-06-27,520.0
1942-06-28,526.0
1942-06-29,488.0
1942-06-30,500.0
1942-07-01,572.0
1942-07-02,688.0
1942-07-03,470.0
1942-07-04,539.0
1942-07-05,558.0
1942-07-06,526.0
1942-07-07,640.0
1942-07-08,664.0
1942-07-09,648.0
1942-07-10,506.0
1942-07-11,392.0
1942-07-12,375.0
1942-07-13,370.0
1942-07-14,340.0
1942-07-15,303.0
1942-07-16,340.0
1942-07-17,434.0
1942-07-18,580.0
1942-07-19,572.0
1942-07-20,440.0
1942-07-21,326.0
1942-07-22,298.0
1942-07-23,240.0
1942-07-24,220.0
1942-07-25,220.0
1942-07-26,224.0
1942-07-27,224.0
1942-07-28,240.0
1942-07-29,216.0
1942-07-30,285.0
1942-07-31,236.0
1942-08-01,244.0
1942-08-02,308.0
1942-08-03,416.0
1942-08-04,434.0
1942-08-05,416.0
1942-08-06,398.0
1942-08-07,355.0
1942-08-08,326.0
1942-08-09,330.0
1942-08-10,308.0
1942-08-11,276.0
1942-08-12,330.0
1942-08-13,476.0